Location: Unspecified
(0.0000°N, 0.0000°E)
Time: 00:31:10
(UTC+00:00)

Tiangong - Pass Details

Date: 20 January 2022
Orbit: 381 x 387 km, 41.5° (Epoch: 27 January)

Event Time Altitude Azimuth Distance (km) Brightness Sun altitude
Rises 05:36:27 0° 344° (NNW) 2,229 4.6 -8.1°
Reaches altitude 10° 05:39:23 10° 15° (NNE) 1,382 3.8 -7.4°
Maximum altitude 05:40:52 13° 43° (NE) 1,234 3.9 -7.1°
Drops below altitude 10° 05:42:21 10° 72° (ENE) 1,386 4.7 -6.7°
Sets 05:45:18 0° 102° (ESE) 2,242 7.3 -6.0°
